Location: Newark
(40.3500°N, 15.2333°E)
Time: 16:47:22
(UTC+00:00)

ISS - Visible Passes

Search period start: 27 January 2021 00:00
Search period end: 06 February 2021 00:00
Orbit: 418 x 421 km, 51.6° (Epoch: 28 January)

Date Brightness Start Highest point End Pass type
(mag) Time Alt. Az. Time Alt. Az. Time Alt. Az.
27 Jan -1.3 17:02:18 10° NW 17:04:00 13° N 17:05:42 10° NNE visible
28 Jan -1.3 17:52:36 10° NNW 17:53:50 13° N 17:53:50 13° N visible
29 Jan -1.3 17:05:12 10° NNW 17:06:42 12° N 17:08:13 10° NNE visible
30 Jan -1.6 17:54:29 10° NNW 17:56:07 17° N 17:56:07 17° N visible
31 Jan -1.6 17:07:16 10° NNW 17:09:20 15° NNE 17:10:50 12° NE visible
31 Jan -0.7 18:43:28 10° NW 18:43:49 12° NW 18:43:49 12° NW visible
01 Feb -2.5 17:56:14 10° NW 17:58:37 29° N 17:58:37 29° N visible
02 Feb -2.3 17:08:59 10° NNW 17:11:48 23° NNE 17:13:31 16° ENE visible
02 Feb -1.0 18:45:29 10° WNW 18:46:30 18° WNW 18:46:30 18° WNW visible
03 Feb -3.9 17:58:03 10° NW 18:01:27 83° NE 18:01:32 81° ENE visible
04 Feb -3.5 17:10:42 10° NW 17:14:01 49° NNE 17:16:44 14° ESE visible
04 Feb -0.9 18:48:09 10° W 18:49:46 17° WSW 18:49:46 17° WSW visible
05 Feb -2.0 18:00:15 10° WNW 18:03:18 31° SW 18:05:11 18° S visible
